Probability
0 0 0 0 0 0 0 0 0 0 0 0 0 0 0 0 0 0 0 0 0 0 0 0 0 0 0 0 0 0 0 0 0 0 0 0 0 0 0 0 0 0 0
0 0 0 0 0 0 0 0 0 0 0 0 0 0 0 0 0 0 0 0 0 0 0 0 0 0 0 0 0 0 0 0 0 0 0 0 0 0 0 0 0 0 0
0 0 0 0 0 0 0 0 0 0 0 0 0 0 0 0 0 0 0 0 0 0 0 0 0 0 0 0 0 0 0 0 0 0 0 0 0 0 0 0 0 0 0
0 0 0 0 0 0 0 0 0 0 0 0 0 0 0 0 0 0 0 0 0 0 0 0 0 0 0 0 0 0 0 0 0 0 0 0 0 0 0 0 0 0 0
0 0 0 0 0 0 0 0 0 0 0 0 0 0 0 0 0 0 0 0 0 0 0 0 0 0 0 0 0 0 0 0 0 0 0 0 0 0 0 0 0 0 0
0 0 0 0 0 0 0 0 0 0 0 0 0 0 0 0 0 0 0 0 0 0 0 0 0 0 0 0 0 0 0 0 0 0 0 0 0 0 0 0 0 0 0
0 0 0 0 0 0 0 0 0 0 0 0 0 0 0 0 0 0 0 0 0 0 0 0 0 0 0 0 0 0 0 0 0 0 0 0 0 0 0 0 0 0 0
0 0 0 0 0 0 0 0 0 0 0 0 0 0 0 0 0 0 0 0 0 0 0 0 0 0 0 0 0 0 0 0 0 0 0 0 0 0 0 0 0 0 0
0 0 0 0 0 0 0 0 0 0 0 0 0 0 0 0 0 0 0 0 0 0 0 0 0 0 0 0 0 0 0 0 0 0 0 0 0 0 0 0 0 0 0
0 0 0 0 0 0 0 0 0 0 0 0 0 0 0 0 0 0 0 0 0 0 0 0 0 0 0 0 0 0 0 0 0 0 0 0 0 0 0 0 0 0 0
0 0 0 0 0 0 0 0 0 0 0 0 0 0 0 0 0 0 0 0 0 0 0 0 0 0 0 0 0 0 0 0 0 0 0 0 0 0 0 0 0 0 0
0 0 0 0 0 0 0 0 0 0 0 0 0 0 0 0 0 0 0 0 0 0 0 0 0 0 0 0 0 0 0 0 0 0 0 0 0 0 0 0 0 0 0
0 0 0 0 0 0 0 0 0 0 0 0 0 0 0 0 0 0 0 0 0 0 0 0 0 0 0 0 0 0 0 0 0 0 0 0 0 0 0 0 0 0 0
0 0 0 0 0 0 0 0 0 0 0 0 0 0 0 0 0 0 0 0 0 0 0 0 0 0 0 0 0 0 0 0 0 0 0 0 0 0 0 0 0 0 0
0 0 0 0 0 0 0 0 0 0 0 0 0 0 0 0 0 0 0 0 0 0 0 0 0 0 0 0 0 0 0 0 0 0 0 0 0 0 0 0 0 0 0
0 0 0 0 0 0 0 0 0 0 0 0 0 0 0 0 0 0 0 0 0 0 0 0 0 0 0 0 0 0 0 0 0 0 0 0 0 0 0 0 0 0 0
0 0 0 0 0 0 0 0 0 0 0 0 0 0 0 0 0 0 0 0 0 0 0 0 0 0 0 0 0 0 0 0 0 0 0 0 0 0 0 0 0 0 0
0 0 0 0 0 0 0 0 0 0 0 0 0 0 0 0 0 0 0 0 0 0 0 0 0 0 0 0 0 0 0 0 0 0 0 0 0 0 0 0 0 0 0
0 0 0 0 0 0 0 0 0 0 0 0 0 0 0 0 0 0 0 0 0 0 0 0 0 0 0 0 0 0 0 0 0 0 0 0 0 0 0 0 0 0 0
0 0 0 0 0 0 0 0 0 0 0 0 0 0 0 0 0 0 0 0 0 0 0 0 0 0 0 0 0 0 0 0 0 0 0 0 0 0 0 0 0 0 0
0 0 0 0 0 0 0 0 0 0 0 0 0 0 0 0 0 0 0 0 0 0 0 0 0 0 0 0 0 0 0 0 0 0 0 0 0 0 0 0 0 0 0
0 0 0 0 0 0 0 0 0 0 0 0 0 0 0 0 0 0 0 0 0 0 0 0 0 0 0 0 0 0 0 0 0 0 0 0 0 0 0 0 0 0 0
0 0 0 0 0 0 0 0 0 0 0 0 0 0 0 0 0 0 0 0 0 0 0 0 0 0 0 0 0 0 0 0 0 0 0 0 0 0 0 0 0 0 0
0 0 0 0 0 0 0 0 0 0 0 0 0 0 0 0 0 0 0 0 0 0 0 0 0 0 0 0 0 0 0 0 0 0 0 0 0 0 0 0 0 0 0
0 0 0 0 0 0 0 0 0 0 0 0 0 0 0 0 0 0 0 0 0 0 0 0 0 0 0 0 0 0 0 0 0 0 0 0 0 0 0 0 0 0 0
0 0 0 0 0 0 0 0 0 0 0 0 0 0 0 0 0 0 0 0 0 0 0 0 0 0 0 0 0 0 0 0 0 0 0 0 0 0 0 0 0 0 0
Wind_Speed
7 7 4 1 4 7 9 11 12 11 9 6 7 8 10 8 6 8 9 10 11 11 11 9 8 8 9 10 9 7 7 6 3 2 5 5 8 12 10 9 9 10 11
9 10 8 5 1 4 6 8 10 10 11 11 9 6 5 5 6 5 7 10 12 12 12 12 9 10 9 9 9 9 6 5 6 5 2 5 6 8 13 11 11 11 8
7 8 7 6 4 1 3 5 8 9 9 8 4 2 1 1 3 6 7 10 12 13 13 14 13 11 11 11 12 11 11 9 7 7 6 5 8 4 4 7 10 9 9
5 5 6 6 5 4 1 2 4 6 6 7 6 8 8 9 10 8 8 8 10 12 14 13 14 13 12 13 13 13 11 11 10 7 9 8 4 3 6 3 5 7 10
4 5 5 5 5 5 4 2 0 2 4 6 8 8 10 11 7 5 7 8 9 11 13 14 13 14 13 14 13 12 13 12 13 10 6 9 8 8 6 10 5 3 5
3 4 4 5 6 6 5 4 2 1 2 5 6 8 11 11 9 8 8 8 7 8 12 12 13 14 13 14 14 14 15 14 14 12 10 8 7 9 10 15 12 7 5
1 2 4 5 5 6 5 4 3 3 2 3 6 8 10 10 12 11 10 9 8 8 10 12 13 13 14 14 13 13 15 16 15 16 13 13 13 7 7 10 10 7 5
1 1 2 3 3 4 4 4 3 4 4 3 5 6 8 7 8 9 9 9 9 9 10 11 13 14 14 14 13 13 15 14 16 18 16 13 12 10 10 8 7 8 6
1 0 1 2 2 3 3 3 3 4 5 5 5 6 6 7 8 9 8 8 9 8 9 10 12 13 14 14 14 13 15 15 16 16 16 15 12 10 10 9 9 10 12
2 1 2 2 2 3 3 3 3 4 4 5 5 5 6 6 7 6 8 8 9 9 9 9 10 11 12 13 13 13 14 15 15 13 14 15 12 10 10 10 9 11 13
3 3 3 3 3 4 4 4 4 4 5 5 5 6 6 6 6 6 8 8 8 8 9 10 10 11 12 12 12 14 13 16 16 14 15 17 13 11 10 10 10 12 11
3 3 3 4 4 5 5 5 5 5 6 5 5 6 6 6 7 8 8 8 8 8 8 9 9 11 11 11 12 14 14 15 16 16 16 17 13 15 12 11 13 13 13
3 3 4 5 5 6 6 6 6 6 6 6 6 6 7 7 8 9 9 8 8 8 8 8 10 11 11 11 12 13 14 14 15 15 16 16 14 16 13 14 13 12 12
3 4 4 5 6 6 6 6 6 6 6 6 6 7 8 8 8 9 8 8 8 9 9 10 10 11 11 11 12 12 13 13 14 14 15 15 15 16 15 14 14 12 12
4 5 5 6 6 6 6 6 6 7 6 7 8 8 9 8 8 9 9 9 9 10 10 10 11 11 9 9 10 11 12 13 13 13 13 14 18 22 17 12 10 10 10
5 6 7 7 7 7 7 6 7 7 7 7 9 9 9 9 9 9 9 9 10 10 10 10 11 11 10 17 23 18 11 11 12 13 12 13 18 23 28 29 25 20 15
6 7 7 7 7 7 6 6 7 7 8 8 9 10 10 10 10 10 10 10 10 10 10 10 11 12 14 22 24 24 15 10 10 12 11 10 11 18 12 19 27 25 29
6 6 6 6 6 5 6 7 7 8 9 9 10 10 10 10 11 10 11 11 10 9 10 11 11 12 14 22 24 24 14 9 9 10 11 11 11 12 12 10 12 12 13
5 5 5 5 6 7 7 7 8 9 9 10 10 10 10 11 12 12 12 11 10 10 10 10 11 12 14 21 23 22 8 7 8 8 9 10 10 17 23 14 11 12 11
5 5 5 5 7 8 7 8 10 10 11 11 11 10 10 11 13 13 12 11 10 11 10 11 11 12 12 18 22 21 6 7 7 6 8 15 15 18 21 13 11 12 10
6 6 6 7 8 8 8 9 10 11 12 11 11 11 11 11 13 12 11 11 11 11 11 12 11 10 12 16 20 20 7 6 7 6 5 7 17 20 21 19 12 15 11
6 6 6 8 8 8 9 11 12 13 12 12 12 12 11 10 10 12 12 11 11 11 11 11 11 8 9 12 15 19 17 14 7 6 5 8 17 19 21 16 16 21 18
7 6 7 9 9 8 8 12 15 14 13 13 12 12 12 10 10 11 12 11 9 9 10 9 10 9 7 9 17 19 19 18 9 6 11 13 17 17 14 18 20 17 10
7 7 8 10 12 10 9 11 14 14 13 14 13 11 12 11 10 8 9 10 9 10 10 10 10 9 8 7 6 7 8 11 9 6 9 14 15 12 12 12 10 7 6
7 7 8 11 14 13 12 11 11 12 13 13 12 11 10 11 11 9 9 11 10 12 14 10 10 11 10 11 17 12 6 5 7 6 4 3 4 5 5 5 5 4 4
8 9 10 12 14 13 13 12 11 10 12 13 12 9 9 9 9 10 11 16 18 23 24 22 19 13 17 22 22 21 19 18 15 9 5 5 5 5 5 6 5 5 5
Wind_Direction
344 353 352 207 184 193 197 199 200 200 184 181 192 200 213 210 209 211 207 205 205 203 205 216 206 203 214 219 214 216 222 228 188 231 278 269 242 240 237 233 232 230 227
9 8 16 31 126 204 207 204 203 196 195 201 200 200 207 212 213 213 213 209 210 209 212 215 213 208 216 220 213 207 216 218 184 187 221 292 292 242 234 227 228 231 225
22 8 13 20 22 312 227 216 211 202 202 198 177 166 151 275 223 220 221 214 212 212 217 217 216 213 213 222 218 209 211 223 209 194 181 208 248 297 262 233 230 224 221
28 19 15 13 7 345 324 243 213 207 202 185 186 195 208 224 225 224 226 220 214 217 217 219 218 218 218 224 221 215 214 215 223 213 219 221 196 231 294 270 237 227 225
38 27 18 15 10 7 17 15 96 209 200 196 203 209 227 238 243 234 234 232 225 223 222 221 221 224 223 226 224 217 213 215 224 216 207 226 233 226 244 274 277 260 237
37 23 14 20 15 14 22 26 28 317 219 210 216 222 235 245 252 247 244 242 237 231 227 224 226 227 228 226 224 222 220 221 223 223 215 205 210 212 217 242 252 249 236
39 17 24 22 15 14 10 8 7 330 289 234 233 233 240 245 249 252 250 249 248 242 234 227 230 231 232 230 225 223 225 225 224 224 226 224 228 212 208 231 248 249 238
252 350 18 17 1 4 5 355 342 316 304 272 258 250 247 248 254 254 251 252 253 251 242 231 234 235 234 232 227 227 228 228 228 231 228 230 230 220 217 219 228 252 250
223 301 352 360 350 349 343 329 318 306 300 286 277 272 261 251 256 262 259 259 260 260 251 241 240 240 238 235 230 231 231 229 229 231 230 231 231 224 222 217 211 228 255
243 266 304 323 332 328 323 323 304 288 287 287 277 272 271 264 262 268 268 264 265 264 263 257 250 248 244 239 235 237 235 232 231 229 229 231 230 226 221 220 218 219 238
251 276 300 319 326 327 325 318 312 304 300 294 286 284 282 281 279 272 269 268 270 269 266 263 259 255 251 245 240 239 236 235 236 230 230 232 226 226 222 220 219 223 225
277 293 307 325 328 323 319 315 309 303 295 293 293 289 287 290 287 279 276 274 271 270 267 266 264 262 258 250 245 245 241 237 237 234 231 233 226 226 224 222 223 225 223
324 332 335 326 316 310 308 307 304 298 296 299 300 299 296 293 287 283 281 279 275 274 273 269 267 266 262 256 251 248 246 241 239 235 232 232 226 229 225 223 224 224 225
349 344 328 314 307 303 301 301 302 301 303 305 303 299 294 290 286 284 283 280 277 276 274 271 269 266 263 259 256 252 250 247 244 238 234 231 226 228 225 225 224 221 222
353 333 317 306 305 305 304 304 304 305 307 307 305 298 295 294 292 289 286 282 279 276 274 275 274 270 267 262 258 252 250 249 248 243 238 234 233 232 230 227 220 215 218
321 314 309 308 307 306 305 308 306 305 308 306 301 298 299 299 296 292 288 285 281 278 276 273 273 273 271 279 282 279 253 243 243 245 241 238 246 247 246 242 233 217 214
300 302 303 300 300 300 302 303 299 304 307 302 299 299 299 298 294 292 290 286 283 279 277 275 273 272 274 284 288 286 280 252 241 239 238 238 236 241 237 247 250 242 230
296 299 299 299 299 300 302 300 301 305 304 301 298 298 298 295 293 291 289 287 282 280 280 278 275 274 277 288 293 292 285 265 247 238 233 232 231 229 228 226 232 236 241
288 286 288 288 295 300 301 304 305 305 302 300 297 296 294 295 295 293 290 287 285 284 280 278 278 277 281 290 296 295 276 264 256 243 233 233 230 237 241 233 226 231 234
296 296 301 301 304 304 307 308 306 305 302 299 296 294 292 293 294 293 292 290 286 285 285 282 277 276 278 287 296 296 276 267 264 250 238 247 246 241 246 239 225 227 225
290 297 302 301 298 301 307 304 303 300 298 296 295 293 291 290 292 292 291 292 291 289 288 286 283 277 279 290 295 297 287 261 261 256 241 237 255 255 248 239 226 231 222
297 301 301 299 298 300 303 302 301 299 299 297 295 294 292 291 296 294 295 292 291 292 292 291 290 282 279 287 291 294 293 289 267 257 245 240 252 254 253 247 235 233 231
292 294 295 297 297 295 293 296 300 302 303 301 297 295 294 290 289 291 295 296 292 291 293 292 292 292 283 281 292 296 296 294 286 261 263 260 258 257 254 252 245 237 226
294 295 299 301 304 302 294 286 294 300 301 301 300 298 298 298 293 288 288 291 292 291 291 292 292 291 288 281 275 272 279 283 284 282 280 280 274 263 246 244 250 238 221
289 290 292 296 300 303 301 295 294 298 299 299 298 298 295 296 298 293 288 291 282 284 292 291 290 294 295 290 293 292 271 248 245 252 238 241 249 246 234 223 222 216 209
291 294 293 294 299 302 302 303 300 296 298 303 303 300 298 297 297 299 299 294 293 296 296 295 294 290 289 296 300 301 300 296 284 271 228 222 229 233 231 218 210 204 201